Location: Chippewa Lake
(41.0698°N, 81.9010°W)
Time: 00:38:08
(UTC+00:00)

MOZ.5/SAFIR/RUBIN 5/SL-8 - Pass Details

Date: 09 May 2021
Orbit: 678 x 704 km, 98.1° (Epoch: 24 June)

Event Time Altitude Azimuth Distance (km) Brightness Sun altitude
Exits shadow 06:41:06 56° 17° (NNE) 812 4.3 -28.8°
Drops below altitude 10° 06:44:52 10° 352° (N) 2,126 7.0 -28.6°
Sets 06:47:07 0° 350° (N) 3,046 7.9 -28.4°
